| time (UTC) | temp F | wind direction | speed MPH | gust MPH | rain 1hr in | rain 24hr in | rain mn in | humidity % | barometer mb |
| 20260903003526 | 92 | 177 | 4.0 | 7.0 | 0.00 | 0.00 | 0.00 | 42 | 1008.4 |
| 20260903003025 | 93 | 175 | 2.0 | 8.0 | 0.00 | 0.00 | 0.00 | 43 | 1008.4 |
| 20260903002525 | 93 | 161 | 4.0 | 8.0 | 0.00 | 0.00 | 0.00 | 42 | 1008.4 |
| 20260903002025 | 93 | 170 | 2.0 | 5.0 | 0.00 | 0.00 | 0.00 | 42 | 1008.4 |
| 20260903001524 | 94 | 147 | 3.0 | 7.0 | 0.00 | 0.00 | 0.00 | 42 | 1008.5 |
| 20260903001026 | 94 | 147 | 3.0 | 8.0 | 0.00 | 0.00 | 0.00 | 41 | 1008.5 |
| 20260903000524 | 94 | 164 | 2.0 | 8.0 | 0.00 | 0.00 | 0.00 | 41 | 1008.6 |
| 20260903000024 | 94 | 150 | 3.0 | 10.0 | 0.00 | 0.00 | 0.00 | 41 | 1008.6 |
| 20260902235524 | 95 | 151 | 6.0 | 10.0 | 0.00 | 0.00 | 0.00 | 40 | 1008.6 |
| 20260902235026 | 95 | 125 | 4.0 | 9.0 | 0.00 | 0.00 | 0.00 | 40 | 1008.6 |
| 20260902234522 | 95 | 138 | 4.0 | 9.0 | 0.00 | 0.00 | 0.00 | 40 | 1008.7 |
| 20260902234022 | 96 | 118 | 4.0 | 9.0 | 0.00 | 0.00 | 0.00 | 40 | 1008.6 |
| 20260902233522 | 96 | 164 | 3.0 | 9.0 | 0.00 | 0.00 | 0.00 | 40 | 1008.7 |
| 20260902233030 | 96 | 140 | 1.0 | 8.0 | 0.00 | 0.00 | 0.00 | 40 | 1008.6 |
| 20260902232521 | 96 | 124 | 5.0 | 9.0 | 0.00 | 0.00 | 0.00 | 39 | 1008.7 |
| 20260902232025 | 96 | 130 | 5.0 | 9.0 | 0.00 | 0.00 | 0.00 | 40 | 1008.7 |
| 20260902231526 | 96 | 136 | 6.0 | 10.0 | 0.00 | 0.00 | 0.00 | 40 | 1008.7 |
| 20260902231025 | 96 | 144 | 5.0 | 13.0 | 0.00 | 0.00 | 0.00 | 40 | 1008.8 |
| 20260902230524 | 95 | 112 | 3.0 | 8.0 | 0.00 | 0.00 | 0.00 | 41 | 1008.7 |
| 20260902230024 | 95 | 182 | 5.0 | 8.0 | 0.00 | 0.00 | 0.00 | 42 | 1008.7 |
| 20260902225523 | 94 | 106 | 1.0 | 6.0 | 0.00 | 0.00 | 0.00 | 43 | 1008.8 |
| 20260902225023 | 93 | 148 | 2.0 | 7.0 | 0.00 | 0.00 | 0.00 | 44 | 1008.7 |
| 20260902224522 | 92 | 118 | 3.0 | 8.0 | 0.00 | 0.00 | 0.00 | 44 | 1008.8 |
| 20260902224022 | 93 | 136 | 3.0 | 8.0 | 0.00 | 0.00 | 0.00 | 43 | 1008.8 |
| 20260902223523 | 93 | 101 | 4.0 | 8.0 | 0.00 | 0.00 | 0.00 | 44 | 1008.8 |
| 20260902223023 | 93 | 116 | 2.0 | 11.0 | 0.00 | 0.00 | 0.00 | 43 | 1008.8 |
| 20260902222521 | 93 | 124 | 4.0 | 15.0 | 0.00 | 0.00 | 0.00 | 43 | 1008.8 |
| 20260902222021 | 94 | 134 | 7.0 | 15.0 | 0.00 | 0.00 | 0.00 | 43 | 1008.7 |
| 20260902221521 | 94 | 151 | 4.0 | 10.0 | 0.00 | 0.00 | 0.00 | 42 | 1008.8 |
| 20260902221021 | 94 | 174 | 5.0 | 10.0 | 0.00 | 0.00 | 0.00 | 42 | 1008.9 |
| 20260902220521 | 95 | 127 | 4.0 | 8.0 | 0.00 | 0.00 | 0.00 | 43 | 1008.8 |
| 20260902220020 | 95 | 180 | 2.0 | 10.0 | 0.00 | 0.00 | 0.00 | 40 | 1008.9 |
| 20260902215519 | 96 | 161 | 6.0 | 10.0 | 0.00 | 0.00 | 0.00 | 40 | 1008.9 |
| 20260902215019 | 96 | 209 | 3.0 | 16.0 | 0.00 | 0.00 | 0.00 | 40 | 1008.8 |
| 20260902214518 | 97 | 177 | 7.0 | 16.0 | 0.00 | 0.00 | 0.00 | 38 | 1008.9 |
| 20260902214017 | 97 | 175 | 3.0 | 12.0 | 0.00 | 0.00 | 0.00 | 39 | 1008.9 |
| 20260902213516 | 97 | 175 | 2.0 | 10.0 | 0.00 | 0.00 | 0.00 | 40 | 1009.0 |
| 20260902213016 | 97 | 180 | 3.0 | 10.0 | 0.00 | 0.00 | 0.00 | 39 | 1009.0 |
| 20260902212515 | 96 | 182 | 6.0 | 10.0 | 0.00 | 0.00 | 0.00 | 41 | 1009.0 |
| 20260902212015 | 96 | 306 | 2.0 | 9.0 | 0.00 | 0.00 | 0.00 | 40 | 1009.1 |
| 20260902211515 | 97 | 126 | 4.0 | 14.0 | 0.00 | 0.00 | 0.00 | 39 | 1009.1 |
| 20260902211014 | 97 | 161 | 7.0 | 14.0 | 0.00 | 0.00 | 0.00 | 39 | 1009.1 |
| 20260902210514 | 96 | 249 | 5.0 | 9.0 | 0.00 | 0.00 | 0.00 | 41 | 1009.1 |
| 20260902210012 | 95 | 217 | 5.0 | 10.0 | 0.00 | 0.00 | 0.00 | 42 | 1009.2 |
| 20260902205512 | 94 | 153 | 5.0 | 10.0 | 0.00 | 0.00 | 0.00 | 43 | 1009.3 |
| 20260902205011 | 94 | 145 | 4.0 | 11.0 | 0.00 | 0.00 | 0.00 | 43 | 1009.4 |
| 20260902204516 | 94 | 161 | 7.0 | 11.0 | 0.00 | 0.00 | 0.00 | 43 | 1009.5 |
| 20260902204010 | 95 | 275 | 1.0 | 7.0 | 0.00 | 0.00 | 0.00 | 41 | 1009.6 |
| 20260902203509 | 95 | 267 | 1.0 | 9.0 | 0.00 | 0.00 | 0.00 | 41 | 1009.7 |
| 20260902203009 | 96 | 182 | 4.0 | 12.0 | 0.00 | 0.00 | 0.00 | 41 | 1009.8 |
| 20260902202509 | 97 | 237 | 9.0 | 16.0 | 0.00 | 0.00 | 0.00 | 40 | 1009.8 |
| 20260902202009 | 97 | 225 | 7.0 | 16.0 | 0.00 | 0.00 | 0.00 | 42 | 1009.9 |
| 20260902201515 | 96 | 181 | 4.0 | 19.0 | 0.00 | 0.00 | 0.00 | 43 | 1009.9 |
| 20260902201007 | 97 | 250 | 9.0 | 19.0 | 0.00 | 0.00 | 0.00 | 42 | 1010.1 |
| 20260902200507 | 97 | 264 | 8.0 | 11.0 | 0.00 | 0.00 | 0.00 | 42 | 1010.1 |
| 20260902200003 | 97 | 84 | 7.0 | 14.0 | 0.00 | 0.00 | 0.00 | 41 | 1010.1 |
| 20260902195502 | 96 | 158 | 9.0 | 14.0 | 0.00 | 0.00 | 0.00 | 43 | 1010.3 |
| 20260902195001 | 96 | 190 | 6.0 | 13.0 | 0.00 | 0.00 | 0.00 | 43 | 1010.5 |
| 20260902194602 | 95 | 144 | 7.0 | 18.0 | 0.00 | 0.00 | 0.00 | 44 | 1010.5 |
| 20260902194100 | 95 | 232 | 10.0 | 18.0 | 0.00 | 0.00 | 0.00 | 43 | 1010.6 |
| 20260902193604 | 95 | 179 | 4.0 | 13.0 | 0.00 | 0.00 | 0.00 | 45 | 1010.6 |
| 20260902193059 | 95 | 209 | 3.0 | 18.0 | 0.00 | 0.00 | 0.00 | 44 | 1010.7 |
| 20260902192558 | 96 | 217 | 7.0 | 15.0 | 0.00 | 0.00 | 0.00 | 44 | 1010.8 |
| 20260902192057 | 96 | 217 | 10.0 | 15.0 | 0.00 | 0.00 | 0.00 | 44 | 1010.9 |
| 20260902191556 | 95 | 178 | 2.0 | 12.0 | 0.00 | 0.00 | 0.00 | 44 | 1010.9 |
| 20260902191055 | 95 | 196 | 9.0 | 15.0 | 0.00 | 0.00 | 0.00 | 45 | 1010.9 |
| 20260902190553 | 94 | 165 | 6.0 | 15.0 | 0.00 | 0.00 | 0.00 | 47 | 1011.0 |
| 20260902190053 | 93 | 211 | 5.0 | 13.0 | 0.00 | 0.00 | 0.00 | 47 | 1011.0 |
| 20260902185552 | 93 | 214 | 4.0 | 16.0 | 0.00 | 0.00 | 0.00 | 46 | 1011.2 |
| 20260902185050 | 94 | 244 | 10.0 | 16.0 | 0.00 | 0.00 | 0.00 | 45 | 1011.2 |
| 20260902184550 | 94 | 289 | 6.0 | 14.0 | 0.00 | 0.00 | 0.00 | 44 | 1011.4 |
| 20260902184049 | 94 | 217 | 7.0 | 15.0 | 0.00 | 0.00 | 0.00 | 44 | 1011.4 |
| 20260902183549 | 94 | 227 | 8.0 | 13.0 | 0.00 | 0.00 | 0.00 | 44 | 1011.4 |
| 20260902183053 | 94 | 232 | 10.0 | 15.0 | 0.00 | 0.00 | 0.00 | 44 | 1011.5 |
| 20260902182546 | 93 | 258 | 7.0 | 15.0 | 0.00 | 0.00 | 0.00 | 45 | 1011.7 |
| 20260902182047 | 94 | 233 | 8.0 | 13.0 | 0.00 | 0.00 | 0.00 | 43 | 1011.7 |
| 20260902181549 | 94 | 206 | 7.0 | 14.0 | 0.00 | 0.00 | 0.00 | 45 | 1011.8 |
| 20260902181045 | 94 | 190 | 8.0 | 14.0 | 0.00 | 0.00 | 0.00 | 44 | 1012.0 |
| 20260902180544 | 93 | 261 | 8.0 | 15.0 | 0.00 | 0.00 | 0.00 | 44 | 1012.0 |
| 20260902180049 | 93 | 233 | 6.0 | 15.0 | 0.00 | 0.00 | 0.00 | 46 | 1012.1 |
| 20260902175540 | 93 | 229 | 11.0 | 15.0 | 0.00 | 0.00 | 0.00 | 45 | 1012.3 |
| 20260902175042 | 92 | 227 | 6.0 | 16.0 | 0.00 | 0.00 | 0.00 | 46 | 1012.3 |
| 20260902174538 | 93 | 257 | 10.0 | 15.0 | 0.00 | 0.00 | 0.00 | 45 | 1012.4 |
| 20260902174036 | 92 | 236 | 6.0 | 12.0 | 0.00 | 0.00 | 0.00 | 45 | 1012.5 |
| 20260902173536 | 92 | 221 | 6.0 | 16.0 | 0.00 | 0.00 | 0.00 | 45 | 1012.6 |
| 20260902173034 | 92 | 249 | 12.0 | 16.0 | 0.00 | 0.00 | 0.00 | 43 | 1012.7 |
| 20260902172536 | 92 | 242 | 10.0 | 16.0 | 0.00 | 0.00 | 0.00 | 42 | 1012.7 |
| 20260902172034 | 91 | 204 | 8.0 | 14.0 | 0.00 | 0.00 | 0.00 | 43 | 1012.7 |
| 20260902171534 | 91 | 208 | 9.0 | 16.0 | 0.00 | 0.00 | 0.00 | 43 | 1012.9 |
| 20260902171031 | 91 | 216 | 9.0 | 16.0 | 0.00 | 0.00 | 0.00 | 45 | 1012.8 |
| 20260902170532 | 90 | 240 | 10.0 | 15.0 | 0.00 | 0.00 | 0.00 | 46 | 1012.8 |
| 20260902170029 | 90 | 225 | 9.0 | 17.0 | 0.00 | 0.00 | 0.00 | 48 | 1012.9 |
| 20260902165528 | 90 | 216 | 6.0 | 17.0 | 0.00 | 0.00 | 0.00 | 47 | 1012.9 |
| 20260902165028 | 90 | 227 | 5.0 | 15.0 | 0.00 | 0.00 | 0.00 | 50 | 1013.0 |
| 20260902164526 | 90 | 226 | 8.0 | 15.0 | 0.00 | 0.00 | 0.00 | 53 | 1013.0 |
| 20260902164025 | 89 | 186 | 6.0 | 13.0 | 0.00 | 0.00 | 0.00 | 53 | 1013.0 |
| 20260902163524 | 88 | 174 | 5.0 | 11.0 | 0.00 | 0.00 | 0.00 | 56 | 1012.9 |
| 20260902163023 | 87 | 250 | 6.0 | 14.0 | 0.00 | 0.00 | 0.00 | 55 | 1013.0 |
| 20260902162522 | 87 | 229 | 8.0 | 14.0 | 0.00 | 0.00 | 0.00 | 56 | 1013.1 |
| 20260902162021 | 87 | 196 | 6.0 | 14.0 | 0.00 | 0.00 | 0.00 | 58 | 1013.1 |
| 20260902161521 | 86 | 226 | 7.0 | 14.0 | 0.00 | 0.00 | 0.00 | 59 | 1013.0 |
| 20260902161022 | 86 | 213 | 11.0 | 14.0 | 0.00 | 0.00 | 0.00 | 57 | 1013.0 |
| 20260902160519 | 86 | 192 | 9.0 | 15.0 | 0.00 | 0.00 | 0.00 | 58 | 1013.0 |
| 20260902160019 | 86 | 209 | 7.0 | 11.0 | 0.00 | 0.00 | 0.00 | 62 | 1013.0 |
| 20260902155518 | 86 | 198 | 6.0 | 12.0 | 0.00 | 0.00 | 0.00 | 64 | 1013.1 |
| 20260902155017 | 85 | 213 | 9.0 | 13.0 | 0.00 | 0.00 | 0.00 | 63 | 1013.1 |
| 20260902154515 | 85 | 195 | 7.0 | 12.0 | 0.00 | 0.00 | 0.00 | 67 | 1013.0 |
| 20260902154014 | 84 | 227 | 7.0 | 10.0 | 0.00 | 0.00 | 0.00 | 67 | 1013.0 |
| 20260902153513 | 84 | 205 | 5.0 | 11.0 | 0.00 | 0.00 | 0.00 | 69 | 1013.0 |
| 20260902153012 | 83 | 240 | 6.0 | 11.0 | 0.00 | 0.00 | 0.00 | 71 | 1013.0 |
| 20260902152511 | 83 | 237 | 7.0 | 11.0 | 0.00 | 0.00 | 0.00 | 70 | 1013.0 |
| 20260902152011 | 83 | 227 | 8.0 | 13.0 | 0.00 | 0.00 | 0.00 | 71 | 1013.1 |
| 20260902151511 | 83 | 207 | 7.0 | 11.0 | 0.00 | 0.00 | 0.00 | 70 | 1013.1 |
| 20260902151011 | 83 | 230 | 7.0 | 11.0 | 0.00 | 0.00 | 0.00 | 72 | 1013.0 |
| 20260902150510 | 83 | 234 | 5.0 | 10.0 | 0.00 | 0.00 | 0.00 | 72 | 1013.1 |
| 20260902150009 | 82 | 204 | 5.0 | 10.0 | 0.00 | 0.00 | 0.00 | 73 | 1013.1 |
| 20260902145507 | 82 | 242 | 7.0 | 10.0 | 0.00 | 0.00 | 0.00 | 74 | 1013.1 |
| 20260902145007 | 81 | 262 | 6.0 | 14.0 | 0.00 | 0.00 | 0.00 | 74 | 1013.0 |
| 20260902144505 | 81 | 254 | 6.0 | 14.0 | 0.00 | 0.00 | 0.00 | 74 | 1013.0 |
| 20260902144105 | 80 | 216 | 8.0 | 14.0 | 0.00 | 0.00 | 0.00 | 75 | 1013.0 |
| 20260902143505 | 80 | 215 | 8.0 | 14.0 | 0.00 | 0.00 | 0.00 | 76 | 1012.9 |
| 20260902143004 | 79 | 236 | 7.0 | 12.0 | 0.00 | 0.00 | 0.00 | 77 | 1012.9 |
| 20260902142504 | 79 | 234 | 7.0 | 12.0 | 0.00 | 0.00 | 0.00 | 78 | 1012.9 |
| 20260902142004 | 78 | 219 | 7.0 | 11.0 | 0.00 | 0.00 | 0.00 | 79 | 1012.9 |
| 20260902141506 | 78 | 240 | 5.0 | 11.0 | 0.00 | 0.00 | 0.00 | 81 | 1012.9 |
| 20260902141004 | 78 | 234 | 7.0 | 10.0 | 0.00 | 0.00 | 0.00 | 82 | 1012.9 |
| 20260902140505 | 77 | 225 | 7.0 | 9.0 | 0.00 | 0.00 | 0.00 | 83 | 1012.8 |
| 20260902140003 | 77 | 223 | 6.0 | 9.0 | 0.00 | 0.00 | 0.00 | 84 | 1012.9 |
| 20260902135502 | 76 | 222 | 5.0 | 9.0 | 0.00 | 0.00 | 0.00 | 85 | 1012.9 |
| 20260902135002 | 76 | 240 | 4.0 | 9.0 | 0.00 | 0.00 | 0.00 | 85 | 1012.8 |
| 20260902134502 | 76 | 221 | 5.0 | 7.0 | 0.00 | 0.00 | 0.00 | 86 | 1012.8 |
| 20260902134002 | 75 | 213 | 4.0 | 5.0 | 0.00 | 0.00 | 0.00 | 86 | 1012.8 |
| 20260902133602 | 75 | 234 | 3.0 | 5.0 | 0.00 | 0.00 | 0.00 | 86 | 1012.9 |
| 20260902133002 | 74 | 219 | 2.0 | 4.0 | 0.00 | 0.00 | 0.00 | 87 | 1012.8 |
| 20260902132503 | 74 | 223 | 2.0 | 3.0 | 0.00 | 0.00 | 0.00 | 87 | 1012.8 |
| 20260902132001 | 73 | 184 | 1.0 | 3.0 | 0.00 | 0.00 | 0.00 | 88 | 1012.8 |
| 20260902131501 | 73 | 184 | 2.0 | 3.0 | 0.00 | 0.00 | 0.00 | 88 | 1012.7 |
| 20260902131001 | 73 | 184 | 1.0 | 3.0 | 0.00 | 0.00 | 0.00 | 88 | 1012.7 |
| 20260902130559 | 73 | 184 | 0.0 | 3.0 | 0.00 | 0.00 | 0.00 | 88 | 1012.7 |
| 20260902130059 | 72 | 184 | 1.0 | 3.0 | 0.00 | 0.00 | 0.00 | 89 | 1012.7 |
| 20260902125559 | 72 | 184 | 2.0 | 4.0 | 0.00 | 0.00 | 0.00 | 89 | 1012.6 |
| 20260902125058 | 72 | 135 | 2.0 | 3.0 | 0.00 | 0.00 | 0.00 | 89 | 1012.6 |
| 20260902124605 | 72 | 144 | 1.0 | 3.0 | 0.00 | 0.00 | 0.00 | 89 | 1012.4 |
| 20260902124058 | 72 | 139 | 2.0 | 3.0 | 0.00 | 0.00 | 0.00 | 89 | 1012.4 |
| 20260902123558 | 72 | 139 | 1.0 | 3.0 | 0.00 | 0.00 | 0.00 | 89 | 1012.4 |
| 20260902123058 | 72 | 128 | 1.0 | 4.0 | 0.00 | 0.00 | 0.00 | 89 | 1012.3 |
| 20260902122558 | 72 | 149 | 2.0 | 4.0 | 0.00 | 0.00 | 0.00 | 88 | 1012.4 |
| 20260902122057 | 72 | 147 | 3.0 | 4.0 | 0.00 | 0.00 | 0.00 | 88 | 1012.3 |
| 20260902121604 | 72 | 169 | 2.0 | 5.0 | 0.00 | 0.00 | 0.00 | 88 | 1012.3 |
| 20260902121057 | 72 | 160 | 3.0 | 5.0 | 0.00 | 0.00 | 0.00 | 88 | 1012.2 |
| 20260902120558 | 72 | 166 | 4.0 | 5.0 | 0.00 | 0.00 | 0.00 | 87 | 1012.2 |
| 20260902120057 | 72 | 167 | 1.0 | 5.0 | 0.00 | 0.00 | 0.00 | 87 | 1012.2 |
| 20260902115555 | 72 | 170 | 3.0 | 5.0 | 0.00 | 0.00 | 0.00 | 87 | 1012.3 |
| 20260902115055 | 72 | 175 | 2.0 | 5.0 | 0.00 | 0.00 | 0.00 | 87 | 1012.3 |
| 20260902114556 | 72 | 149 | 2.0 | 5.0 | 0.00 | 0.00 | 0.00 | 87 | 1012.3 |
| 20260902114055 | 72 | 173 | 2.0 | 3.0 | 0.00 | 0.00 | 0.00 | 87 | 1012.2 |
| 20260902113559 | 72 | 173 | 2.0 | 3.0 | 0.00 | 0.00 | 0.00 | 87 | 1012.3 |
| 20260902113056 | 72 | 155 | 2.0 | 3.0 | 0.00 | 0.00 | 0.00 | 86 | 1012.2 |
| 20260902112554 | 72 | 165 | 1.0 | 3.0 | 0.00 | 0.00 | 0.00 | 86 | 1012.3 |
| 20260902112053 | 72 | 171 | 1.0 | 4.0 | 0.00 | 0.00 | 0.00 | 85 | 1012.2 |
| 20260902111557 | 73 | 188 | 1.0 | 3.0 | 0.00 | 0.00 | 0.00 | 85 | 1012.3 |
| 20260902111053 | 73 | 196 | 2.0 | 4.0 | 0.00 | 0.00 | 0.00 | 84 | 1012.3 |
| 20260902110553 | 73 | 179 | 2.0 | 4.0 | 0.00 | 0.00 | 0.00 | 84 | 1012.3 |
| 20260902110051 | 73 | 188 | 2.0 | 3.0 | 0.00 | 0.00 | 0.00 | 83 | 1012.2 |
| 20260902105550 | 73 | 196 | 1.0 | 4.0 | 0.00 | 0.00 | 0.00 | 82 | 1012.1 |
| 20260902105049 | 73 | 200 | 1.0 | 5.0 | 0.00 | 0.00 | 0.00 | 82 | 1012.2 |
| 20260902104551 | 74 | 200 | 1.0 | 5.0 | 0.00 | 0.00 | 0.00 | 82 | 1012.1 |
| 20260902104049 | 74 | 190 | 2.0 | 6.0 | 0.00 | 0.00 | 0.00 | 82 | 1012.2 |
| 20260902103548 | 74 | 201 | 2.0 | 6.0 | 0.00 | 0.00 | 0.00 | 82 | 1012.2 |
| 20260902103047 | 74 | 198 | 2.0 | 6.0 | 0.00 | 0.00 | 0.00 | 81 | 1012.1 |
| 20260902102547 | 74 | 202 | 2.0 | 5.0 | 0.00 | 0.00 | 0.00 | 81 | 1012.0 |
| 20260902102047 | 74 | 198 | 3.0 | 6.0 | 0.00 | 0.00 | 0.00 | 81 | 1012.0 |
| 20260902101555 | 74 | 208 | 3.0 | 8.0 | 0.00 | 0.00 | 0.00 | 81 | 1012.0 |
| 20260902101046 | 74 | 212 | 4.0 | 8.0 | 0.00 | 0.00 | 0.00 | 82 | 1012.0 |
| 20260902100545 | 74 | 208 | 4.0 | 7.0 | 0.00 | 0.00 | 0.00 | 82 | 1011.9 |
| 20260902100045 | 75 | 213 | 4.0 | 7.0 | 0.00 | 0.00 | 0.00 | 83 | 1012.0 |
| 20260902095544 | 75 | 202 | 4.0 | 7.0 | 0.00 | 0.00 | 0.00 | 83 | 1012.0 |
| 20260902095043 | 75 | 187 | 5.0 | 7.0 | 0.00 | 0.00 | 0.00 | 83 | 1012.1 |
| 20260902094543 | 75 | 193 | 3.0 | 9.0 | 0.00 | 0.00 | 0.00 | 83 | 1012.1 |
| 20260902094042 | 75 | 205 | 5.0 | 8.0 | 0.00 | 0.00 | 0.00 | 82 | 1012.1 |
| 20260902093542 | 75 | 199 | 3.0 | 8.0 | 0.00 | 0.00 | 0.00 | 82 | 1012.1 |
| 20260902093052 | 75 | 205 | 4.0 | 8.0 | 0.00 | 0.00 | 0.00 | 82 | 1012.2 |
| 20260902092541 | 75 | 175 | 4.0 | 7.0 | 0.00 | 0.00 | 0.00 | 82 | 1012.2 |
| 20260902092043 | 75 | 215 | 3.0 | 6.0 | 0.00 | 0.00 | 0.00 | 81 | 1012.3 |
| 20260902091550 | 75 | 175 | 3.0 | 7.0 | 0.00 | 0.00 | 0.00 | 81 | 1012.3 |
| 20260902091040 | 75 | 159 | 4.0 | 8.0 | 0.00 | 0.00 | 0.00 | 81 | 1012.3 |
| 20260902090540 | 75 | 194 | 4.0 | 8.0 | 0.00 | 0.00 | 0.00 | 81 | 1012.3 |
| 20260902090043 | 75 | 193 | 4.0 | 8.0 | 0.00 | 0.00 | 0.00 | 80 | 1012.2 |
| 20260902085539 | 75 | 196 | 4.0 | 8.0 | 0.00 | 0.00 | 0.00 | 80 | 1012.3 |
| 20260902085038 | 75 | 200 | 4.0 | 8.0 | 0.00 | 0.00 | 0.00 | 79 | 1012.3 |
| 20260902084548 | 75 | 186 | 4.0 | 7.0 | 0.00 | 0.00 | 0.00 | 79 | 1012.4 |
| 20260902084038 | 75 | 219 | 4.0 | 11.0 | 0.00 | 0.00 | 0.00 | 78 | 1012.4 |
| 20260902083540 | 75 | 194 | 4.0 | 11.0 | 0.00 | 0.00 | 0.00 | 78 | 1012.4 |
| 20260902083046 | 75 | 190 | 3.0 | 7.0 | 0.00 | 0.00 | 0.00 | 77 | 1012.4 |
| 20260902082536 | 75 | 195 | 3.0 | 7.0 | 0.00 | 0.00 | 0.00 | 77 | 1012.4 |
| 20260902082036 | 75 | 190 | 3.0 | 9.0 | 0.00 | 0.00 | 0.00 | 77 | 1012.5 |
| 20260902081535 | 75 | 214 | 4.0 | 9.0 | 0.00 | 0.00 | 0.00 | 77 | 1012.5 |
| 20260902081035 | 75 | 175 | 4.0 | 7.0 | 0.00 | 0.00 | 0.00 | 77 | 1012.4 |
| 20260902080534 | 76 | 177 | 2.0 | 5.0 | 0.00 | 0.00 | 0.00 | 76 | 1012.5 |
| 20260902080034 | 76 | 190 | 3.0 | 5.0 | 0.00 | 0.00 | 0.00 | 76 | 1012.5 |
| 20260902075533 | 76 | 203 | 3.0 | 6.0 | 0.00 | 0.00 | 0.00 | 76 | 1012.5 |
| 20260902075034 | 76 | 202 | 2.0 | 6.0 | 0.00 | 0.00 | 0.00 | 75 | 1012.5 |
| 20260902074533 | 76 | 187 | 2.0 | 6.0 | 0.00 | 0.00 | 0.00 | 75 | 1012.5 |
| 20260902074031 | 76 | 202 | 4.0 | 7.0 | 0.00 | 0.00 | 0.00 | 75 | 1012.5 |
| 20260902073531 | 77 | 176 | 4.0 | 7.0 | 0.00 | 0.00 | 0.00 | 75 | 1012.5 |
| 20260902073029 | 77 | 159 | 4.0 | 6.0 | 0.00 | 0.00 | 0.00 | 75 | 1012.5 |
| 20260902072528 | 77 | 173 | 2.0 | 8.0 | 0.00 | 0.00 | 0.00 | 75 | 1012.5 |
| 20260902072028 | 77 | 176 | 4.0 | 8.0 | 0.00 | 0.00 | 0.00 | 75 | 1012.6 |
| 20260902071535 | 77 | 155 | 4.0 | 7.0 | 0.00 | 0.00 | 0.00 | 74 | 1012.6 |
| 20260902071027 | 77 | 138 | 3.0 | 8.0 | 0.00 | 0.00 | 0.00 | 74 | 1012.6 |
| 20260902070527 | 78 | 170 | 5.0 | 8.0 | 0.00 | 0.00 | 0.00 | 74 | 1012.6 |
| 20260902070025 | 78 | 161 | 4.0 | 11.0 | 0.00 | 0.00 | 0.00 | 74 | 1012.6 |
| 20260902065524 | 78 | 163 | 5.0 | 11.0 | 0.00 | 0.00 | 0.00 | 74 | 1012.5 |
| 20260902065123 | 78 | 159 | 5.0 | 11.0 | 0.00 | 0.00 | 0.00 | 73 | 1012.5 |
| 20260902064523 | 78 | 161 | 4.0 | 9.0 | 0.00 | 0.00 | 0.00 | 73 | 1012.5 |
| 20260902064024 | 78 | 180 | 6.0 | 10.0 | 0.00 | 0.00 | 0.00 | 73 | 1012.5 |
| 20260902063521 | 78 | 167 | 4.0 | 10.0 | 0.00 | 0.00 | 0.00 | 72 | 1012.5 |
| 20260902063028 | 78 | 183 | 4.0 | 10.0 | 0.00 | 0.00 | 0.00 | 72 | 1012.4 |
| 20260902062520 | 79 | 160 | 4.0 | 9.0 | 0.00 | 0.00 | 0.00 | 71 | 1012.4 |
| 20260902062023 | 79 | 162 | 3.0 | 7.0 | 0.00 | 0.00 | 0.00 | 71 | 1012.4 |
| 20260902061537 | 79 | 183 | 3.0 | 9.0 | 0.00 | 0.00 | 0.00 | 70 | 1012.4 |
| 20260902061018 | 79 | 163 | 5.0 | 12.0 | 0.00 | 0.00 | 0.00 | 70 | 1012.3 |
| 20260902060518 | 79 | 187 | 4.0 | 13.0 | 0.00 | 0.00 | 0.00 | 69 | 1012.4 |
| 20260902060021 | 79 | 166 | 7.0 | 16.0 | 0.00 | 0.00 | 0.00 | 69 | 1012.3 |
| 20260902055516 | 80 | 139 | 10.0 | 16.0 | 0.00 | 0.00 | 0.00 | 68 | 1012.4 |
| 20260902055015 | 80 | 123 | 7.0 | 13.0 | 0.00 | 0.00 | 0.00 | 67 | 1012.3 |
| 20260902054512 | 80 | 128 | 8.0 | 14.0 | 0.00 | 0.00 | 0.00 | 66 | 1012.3 |
| 20260902054012 | 81 | 125 | 7.0 | 14.0 | 0.00 | 0.00 | 0.00 | 65 | 1012.3 |
| 20260902053511 | 81 | 122 | 7.0 | 15.0 | 0.00 | 0.00 | 0.00 | 65 | 1012.3 |
| 20260902053016 | 81 | 132 | 10.0 | 18.0 | 0.00 | 0.00 | 0.00 | 64 | 1012.3 |
| 20260902052512 | 81 | 134 | 11.0 | 18.0 | 0.00 | 0.00 | 0.00 | 64 | 1012.3 |
| 20260902052008 | 82 | 159 | 10.0 | 14.0 | 0.00 | 0.00 | 0.00 | 62 | 1012.3 |
| 20260902051507 | 82 | 149 | 7.0 | 15.0 | 0.00 | 0.00 | 0.00 | 61 | 1012.4 |
| 20260902051008 | 82 | 139 | 10.0 | 16.0 | 0.00 | 0.00 | 0.00 | 60 | 1012.4 |
| 20260902050506 | 82 | 134 | 10.0 | 16.0 | 0.00 | 0.00 | 0.00 | 59 | 1012.4 |
| 20260902050008 | 82 | 139 | 5.0 | 7.0 | 0.00 | 0.00 | 0.00 | 57 | 1012.2 |
| 20260902045503 | 82 | 144 | 3.0 | 6.0 | 0.00 | 0.00 | 0.00 | 57 | 1012.0 |
| 20260902045005 | 82 | 160 | 3.0 | 7.0 | 0.00 | 0.00 | 0.00 | 57 | 1012.0 |
| 20260902044504 | 82 | 152 | 3.0 | 7.0 | 0.00 | 0.00 | 0.00 | 57 | 1012.1 |
| 20260902044003 | 82 | 152 | 4.0 | 5.0 | 0.00 | 0.00 | 0.00 | 57 | 1012.0 |
| 20260902043507 | 82 | 165 | 3.0 | 7.0 | 0.00 | 0.00 | 0.00 | 57 | 1012.0 |
| 20260902043004 | 82 | 142 | 3.0 | 7.0 | 0.00 | 0.00 | 0.00 | 57 | 1012.0 |
| 20260902042503 | 82 | 126 | 3.0 | 7.0 | 0.00 | 0.00 | 0.00 | 57 | 1012.1 |
| 20260902042004 | 82 | 152 | 4.0 | 7.0 | 0.00 | 0.00 | 0.00 | 57 | 1012.1 |
| 20260902041505 | 82 | 144 | 4.0 | 8.0 | 0.00 | 0.00 | 0.00 | 57 | 1012.1 |
| 20260902041002 | 82 | 163 | 4.0 | 8.0 | 0.00 | 0.00 | 0.00 | 57 | 1012.1 |
| 20260902040502 | 82 | 132 | 3.0 | 7.0 | 0.00 | 0.00 | 0.00 | 57 | 1012.0 |
| 20260902040001 | 82 | 143 | 3.0 | 7.0 | 0.00 | 0.00 | 0.00 | 57 | 1012.0 |
| 20260902035501 | 82 | 157 | 3.0 | 7.0 | 0.00 | 0.00 | 0.00 | 57 | 1012.0 |
| 20260902035001 | 82 | 140 | 2.0 | 6.0 | 0.00 | 0.00 | 0.00 | 57 | 1012.0 |
| 20260902034501 | 82 | 143 | 3.0 | 5.0 | 0.00 | 0.00 | 0.00 | 57 | 1012.0 |
| 20260902034001 | 82 | 161 | 2.0 | 5.0 | 0.00 | 0.00 | 0.00 | 56 | 1011.9 |
| 20260902033500 | 83 | 162 | 3.0 | 6.0 | 0.00 | 0.00 | 0.00 | 56 | 1011.9 |
| 20260902033002 | 83 | 148 | 3.0 | 8.0 | 0.00 | 0.00 | 0.00 | 56 | 1011.9 |
| 20260902032600 | 83 | 169 | 5.0 | 8.0 | 0.00 | 0.00 | 0.00 | 56 | 1011.8 |
| 20260902032100 | 83 | 117 | 3.0 | 7.0 | 0.00 | 0.00 | 0.00 | 56 | 1011.8 |
| 20260902031602 | 83 | 138 | 3.0 | 6.0 | 0.00 | 0.00 | 0.00 | 56 | 1011.8 |
| 20260902031100 | 83 | 159 | 3.0 | 6.0 | 0.00 | 0.00 | 0.00 | 56 | 1011.7 |
| 20260902030600 | 83 | 139 | 3.0 | 7.0 | 0.00 | 0.00 | 0.00 | 55 | 1011.7 |
| 20260902030100 | 83 | 152 | 3.0 | 7.0 | 0.00 | 0.00 | 0.00 | 55 | 1011.6 |
| 20260902025559 | 83 | 145 | 3.0 | 7.0 | 0.00 | 0.00 | 0.00 | 55 | 1011.6 |
| 20260902025102 | 84 | 133 | 4.0 | 7.0 | 0.00 | 0.00 | 0.00 | 54 | 1011.5 |
| 20260902024658 | 84 | 134 | 4.0 | 8.0 | 0.00 | 0.00 | 0.00 | 54 | 1011.4 |
| 20260902024102 | 84 | 124 | 4.0 | 8.0 | 0.00 | 0.00 | 0.00 | 54 | 1011.4 |
| 20260902023559 | 84 | 124 | 5.0 | 9.0 | 0.00 | 0.00 | 0.00 | 54 | 1011.2 |
| 20260902023105 | 84 | 132 | 5.0 | 9.0 | 0.00 | 0.00 | 0.00 | 54 | 1011.1 |
| 20260902022558 | 84 | 152 | 4.0 | 8.0 | 0.00 | 0.00 | 0.00 | 54 | 1011.0 |
| 20260902022057 | 84 | 164 | 3.0 | 8.0 | 0.00 | 0.00 | 0.00 | 53 | 1011.0 |
| 20260902021558 | 84 | 128 | 4.0 | 8.0 | 0.00 | 0.00 | 0.00 | 53 | 1010.8 |
| 20260902021058 | 84 | 127 | 3.0 | 8.0 | 0.00 | 0.00 | 0.00 | 53 | 1010.7 |
| 20260902020557 | 84 | 136 | 4.0 | 8.0 | 0.00 | 0.00 | 0.00 | 52 | 1010.7 |
| 20260902020107 | 85 | 142 | 4.0 | 8.0 | 0.00 | 0.00 | 0.00 | 52 | 1010.7 |
| 20260902015556 | 85 | 130 | 3.0 | 7.0 | 0.00 | 0.00 | 0.00 | 52 | 1010.6 |
| 20260902015056 | 85 | 144 | 3.0 | 7.0 | 0.00 | 0.00 | 0.00 | 51 | 1010.6 |
| 20260902014556 | 85 | 155 | 3.0 | 7.0 | 0.00 | 0.00 | 0.00 | 51 | 1010.6 |
| 20260902014055 | 85 | 134 | 3.0 | 7.0 | 0.00 | 0.00 | 0.00 | 50 | 1010.5 |
| 20260902013555 | 86 | 156 | 4.0 | 9.0 | 0.00 | 0.00 | 0.00 | 49 | 1010.4 |
| 20260902013056 | 86 | 146 | 4.0 | 9.0 | 0.00 | 0.00 | 0.00 | 49 | 1010.4 |
| 20260902012555 | 86 | 166 | 4.0 | 7.0 | 0.00 | 0.00 | 0.00 | 49 | 1010.4 |
| 20260902012055 | 86 | 161 | 4.0 | 7.0 | 0.00 | 0.00 | 0.00 | 49 | 1010.3 |
| 20260902011555 | 87 | 155 | 4.0 | 7.0 | 0.00 | 0.00 | 0.00 | 49 | 1010.3 |
| 20260902011055 | 87 | 138 | 3.0 | 7.0 | 0.00 | 0.00 | 0.00 | 48 | 1010.3 |
| 20260902010554 | 87 | 128 | 3.0 | 8.0 | 0.00 | 0.00 | 0.00 | 48 | 1010.3 |
| 20260902010054 | 88 | 144 | 3.0 | 8.0 | 0.00 | 0.00 | 0.00 | 48 | 1010.3 |
| 20260902005555 | 88 | 145 | 3.0 | 9.0 | 0.00 | 0.00 | 0.00 | 47 | 1010.3 |
| 20260902005054 | 89 | 148 | 2.0 | 9.0 | 0.00 | 0.00 | 0.00 | 47 | 1010.2 |
| 20260902004553 | 89 | 148 | 3.0 | 8.0 | 0.00 | 0.00 | 0.00 | 47 | 1010.3 |
| 20260902004052 | 89 | 151 | 3.0 | 8.0 | 0.00 | 0.00 | 0.00 | 46 | 1010.3 |